User: anonymous   Login
Location: Boca do Mato
(22.9085°S, 43.2930°W)
Time: 17:12:32
(UTC+00:00)
Language:

CCE 1 Rocket - Orbit

View from above orbital plane
View from above orbital plane
View from above satellite
View from above satellite

Ground track
Ground track

The orbit data is extracted from the following two-line orbital elements,

1 15202U 84088D   20270.68060829  .00000182  00000-0  71914-4 0  9995
2 15202  28.9172 276.7459 1989452 289.5469  50.1583 10.80711691423377
Epoch (UTC): 26 September 2020 16:20:04
Eccentricity: 0.1989452
inclination: 28.9172°
perigee height: 544 km
apogee height: 3982 km
right ascension of ascending node: 276.7459°
argument of perigee: 289.5469°
revolutions per day: 10.80711691
mean anomaly at epoch: 50.1583°
orbit number at epoch: 42337

The dashed part of the orbit path shows where the satellite is in the earth's shadow,  

DLR